Tracking 19832 objects as of 26-Aug-2019
HD Live streaming from Space Station
objects crossing your sky now

CZ-2D DEB

Track CZ-2D DEB now!
10-day predictions


NORAD ID: 38180
Int'l Code: 2011-068H
Perigee: 729.6 km
Apogee: 945.5 km
Inclination: 98.8 °
Period: 101.5 minutes
Semi major axis: 7208 km
RCS: 0.0013 m2 (small)
Launch date: November 20, 2011
Source: People's Republic of China (PRC)
Launch site: Jiuquan Satellite Launch Center, China (JSC)

Note: This is SATELLITE DEBRIS
aabbcc
Your satellite tracking list
Your tracking list is empty




NASA's NSSDC Master Catalog

Two Line Element Set (TLE):
1 38180U 11068H   19237.81820814 +.00000089 +00000-0 +57852-4 0  9998
2 38180 098.7811 216.4264 0149743 008.1427 107.8299 14.18506772398097
Source of the keplerian elements: AFSPC